Regional Weather Roundup
Issued by NWS Kansas City/Pleasant Hill, MO

Home | Current Version | Previous Version | Text Only | Print | Product List | Glossary On
Versions: 1 2 3 4 5 6 7 8 9 10 11 12 13 14 15 16 17 18 19 20 21 22 23 24 25 26 27 28 29 30 31 32 33 34 35 36 37 38 39 40 41 42 43 44 45 46 47 48 49 50
000
ASUS43 KEAX 090010
RWREAX

WEATHER ROUNDUP FOR EASTERN KANSAS AND NORTHWEST MISSOURI
NATIONAL WEATHER SERVICE KANSAS CITY/PLEASANT HILL MO
600 PM CST MON FEB 08 2016

KSZ040-057-103>105-MOZ028-029-037-043-090100-
...KANSAS CITY METROPOLITAN AREA...

CITY           SKY/WX    TMP DP  RH WIND       PRES   REMARKS
K.C. INTL      MOCLDY    30  16  56 NW21G29   30.09R WCI  17
6HR MIN TEMP:  30; 6HR MAX TEMP:  33; 6HR PCP: TRACE;

K.C. DOWNTOWN  PTCLDY    32  15  49 NW16G29   30.10R WCI  21
6HR MIN TEMP:  32; 6HR MAX TEMP:  34; 6HR PCP: TRACE;

LEES SUMMIT    PTCLDY    30  14  51 NW20G35   30.08R WCI  17
6HR MIN TEMP:  29; 6HR MAX TEMP:  32; 6HR PCP: TRACE;

OLATHE - IXD   CLEAR     31  15  52 NW20G30   30.11R WCI  19
6HR MIN TEMP:  31; 6HR MAX TEMP:  35; 6HR PCP: TRACE;

OLATHE - OJC   PTCLDY    31  14  49 NW16G37   30.09R WCI  20
6HR MIN TEMP:  30; 6HR MAX TEMP:  34; 6HR PCP: TRACE;

LAWRENCE       CLEAR     32  16  51 NW16      30.12S WCI  21

$$

MOZ001>008-011>017-020>025-030>033-038>040-044>046-053-054-090100-
...NORTHERN AND CENTRAL MISSOURI...

CITY           SKY/WX    TMP DP  RH WIND       PRES   REMARKS
ST. JOSEPH     MOCLDY    30  15  53 N21G32    30.10S WCI  17
6HR MIN TEMP:  29; 6HR MAX TEMP:  32; 6HR PCP: TRACE;

MOSBY          CLOUDY    30  18  59 N12       30.09S WCI  21
WARRENSBURG    CLOUDY    30  18  59 NW18G28   30.09R WCI  18
WHITEMAN AFB   NOT AVBL
CLINTON          N/A     32  21  64 NW15G22   30.09R WCI  22
SEDALIA        CLOUDY    27  16  63 NW18G30   30.07R WCI  14
6HR MIN TEMP:  27; 6HR MAX TEMP:  31; 6HR PCP: TRACE;

WARSAW         NOT AVBL
CHILLICOTHE      N/A     26  14  60 NW12G28   30.08R WCI  16
6HR MIN TEMP:  26; 6HR MAX TEMP:  28;

KIRKSVILLE     FLURRIES  20   8  60 NW17G30   30.00R WCI   5
6HR MIN TEMP:  20; 6HR MAX TEMP:  23; 6HR PCP: TRACE;


$$

MOZ041-047>049-056>058-063>065-088>090-097-090100-
...EASTERN AND SOUTHERN MISSOURI...

CITY           SKY/WX    TMP DP  RH WIND       PRES   REMARKS
ST. LOUIS INTL LGT SNOW  25  17  72 NW17G25   29.95R WCI  12
6HR MIN TEMP:  25; 6HR MAX TEMP:  30; 6HR PCP: TRACE;

SPIRIT OF STL  CLOUDY    25  15  66 W17       29.97R WCI  12
COLUMBIA       CLOUDY    25  15  66 NW20G29   30.00R WCI  11
JEFFERSON CITY CLOUDY    27  14  58 NW14      30.03R WCI  16
ROLLA          FLURRIES  25  15  66 NW25G31   29.96R WCI   9
OSAGE BEACH    CLOUDY    28  12  50 W12G26    30.03S WCI  18
SPRINGFIELD    CLOUDY    33  13  43 NW22G33   30.04R WCI  21
BRANSON        CLOUDY    32  14  47 NW13G31   30.05R WCI  22
JOPLIN         MOCLDY    35  15  44 NW14G23   30.13R WCI  26
WEST PLAINS    LGT SNOW  30  20  66 NW17G24   30.00R WCI  18

$$

IAZ060-094-KSZ022-034>040-054-083-096-NEZ052-066-093-090100-
...KANSAS...SOUTHEAST NEBRASKA AND IOWA...

CITY           SKY/WX    TMP DP  RH WIND       PRES   REMARKS
TOPEKA         CLEAR     34  12  40 NW17      30.14R WCI  23
6HR MIN TEMP:  34; 6HR MAX TEMP:  38; 6HR PCP: TRACE;

MANHATTAN      CLEAR     37  18  46 NW8G21    30.17S WCI  31
EMPORIA        CLEAR     35  13  40 NW20G31   30.15R WCI  24
CHANUTE        CLEAR     37  11  34 NW15      30.15R WCI  28
WICHITA        PTCLDY    41  12  30 NW26G37   30.22S WCI  30
OMAHA          PTCLDY    27  18  69 N15       30.10S WCI  15
LINCOLN        CLEAR     33  20  58 NW13      30.14S WCI  24
FALLS CITY     CLEAR     31  17  56 NW14G23   30.11S WCI  21
LAMONI         CLOUDY    21  11  65 NW17G29   30.04R WCI   7
DES MOINES     FLURRIES  20   9  62 N21G31    30.02F WCI   4

$$




USA.gov is the U.S. government's official web portal to all federal, state and local government web resources and services.